Men’s Marathon Results: 2016 Rio Olympic Men’s Marathon Results

  • submit to reddit

by LetsRun.com
August 21, 2016

Results for the men’s marathon – the final athletics event of the 2016 Rio Olympics – appear below.

Eliud Kipchoge of Kenya won gold to lay claim to Greatest Marathoner of All Time status.

Feyisa Lelisa of Ethiopia won silver.

Galen Rupp of the US won bronze.

The first half was a slow 65:55 but the temperatures were in the 70s with high humidity throughout. 5km splits can be found here.

POS BIB ATHLETE MARK DETAIL
1 2680 Eliud KIPCHOGEKEN 2:08:44
2 2398 Feyisa LILESAETH 2:09:54
3 3097 Galen RUPPUSA 2:10:05 PB
4 2339 Ghirmay GHEBRESLASSIEERI 2:11:04
5 2964 Alphonce Felix SIMBUTAN 2:11:15
6 3103 Jared WARDUSA 2:11:30 PB
7 2947 Tadesse ABRAHAMSUI 2:11:42
8 3023 Munyo Solomon MUTAIUGA 2:11:49 SB
9 2459 Callum HAWKINSGBR 2:11:52
10 2198 Eric GILLISCAN 2:12:29
11 2786 Abdi NAGEEYENED 2:13:01
12 2314 Mumin GALADJI 2:13:04 PB
13 2390 Lemi BERHANUETH 2:13:29
14 3019 Stephen KIPROTICHUGA 2:13:32
15 2150 Paulo Roberto PAULABRA 2:13:56 SB
16 2655 Satoru SASAKIJPN 2:13:57
17 3009 Kaan Kigen OZBILENTUR 2:14:11
18 2332 Bayron PIEDRAECU 2:14:12 PB
19 2804 Sondre Nordstad MOENNOR 2:14:17
20 3035 Oleksandr SITKOVSKYYUKR 2:14:24
21 2342 Amanuel MESELERI 2:14:37
22 2096 Koen NAERTBEL 2:14:53
23 2195 Reid COOLSAETCAN 2:14:58
24 2892 Lusapho APRILRSA 2:15:24
25 2559 Thanackal GOPIIND 2:15:25 PB
26 2567 Kheta RAMIND 2:15:26 PB
27 2868 Chol PAKPRK 2:15:27
28 2060 Evans Kiplagat BARKOWETAZE 2:15:31
29 2223 Guojian DONGCHN 2:15:32
30 3031 Ihor OLEFIRENKOUKR 2:15:36
31 2030 Liam ADAMSAUS 2:16:12
32 2584 Paul POLLOCKIRL 2:16:24
33 3079 Mebrahtom KEFLEZIGHIUSA 2:16:46
34 2940 Anuradha Indrajith COORAYSRI 2:17:06
35 2313 Abdi Hakin ULADDEN 2:17:06
36 2641 Suehiro ISHIKAWAJPN 2:17:08
37 2888 Marius IONESCUROU 2:17:27
38 2605 Ruggero PERTILEITA 2:17:30
39 2838 Artur KOZLOWSKIPOL 2:17:34
40 3040 Nicolás CUESTASURU 2:17:44
41 3128 Pardon NDHLOVUZIM 2:17:48
42 2218 Víctor ARAVENACHI 2:17:49
43 2963 Saidi Juma MAKULATAN 2:17:49
44 2091 Florent CAELENBEL 2:17:59
45 2821 Raúl MACHACUAYPER 2:18:00
46 2281 Richer PÉREZCUB 2:18:05
47 2050 Michael SHELLEYAUS 2:18:06
48 3033 Ihor RUSSUKR 2:18:19
49 2352 Carles CASTILLEJOESP 2:18:34
50 3043 Ernesto Andrés ZAMORAURU 2:18:36 PB
51 3006 Ercan MUSLUTUR 2:18:40
52 2823 Cristhian PACHECOPER 2:18:41
53 2025 Mariano MASTROMARINOARG 2:18:44
54 2762 Daniel VARGASMEX 2:18:51
55 2511 Philipp PFLIEGERGER 2:18:56
56 2098 Willem VAN SCHUERBEECKBEL 2:18:56 SB
57 2601 Stefano LA ROSAITA 2:18:57
58 3129 Cuthbert NYASANGOZIM 2:18:58
59 2144 Marilson DOS SANTOSBRA 2:19:09
60 2338 Tewelde ESTIFANOSERI 2:19:12
61 2375 Roman FOSTIEST 2:19:26
62 2992 Atef SAADTUN 2:19:50
63 2384 Tiidrek NURMEEST 2:20:01
64 2585 Kevin SEAWARDIRL 2:20:06
65 2356 Jesús ESPAÑAESP 2:20:08
66 2824 Raúl PACHECOPER 2:20:13
67 2543 Juan Carlos TRUJILLOGUA 2:20:24
68 2739 Abdelmajid EL HISSOUFMAR 2:20:29
69 2118 Stsiapan RAHAUTSOUBLR 2:20:34
70 2777 Mynhardt Mbeumuna KAWANIVINAM 2:20:45 SB
71 2494 Julian FLÜGELGER 2:20:47
72 2484 Daviti KHARAZISHVILIGEO 2:20:47
73 2746 Rachid KISRIMAR 2:21:00
74 2591 Maru TEFERIISR 2:21:06
75 2734 Remigijus KANCYSLTU 2:21:10
76 2949 Christian KREIENBÜHLSUI 2:21:13
77 2724 Mohamed HREZILBA 2:21:17
78 2131 Solonei DA SILVABRA 2:22:05
79 2258 Andrés RUIZCOL 2:22:09
80 3018 Jackson KIPROPUGA 2:22:09
81 2054 Scott WESTCOTTAUS 2:22:19
82 2943 Guor MAKERSSD 2:22:45 SB
83 2117 Uladzislau PRAMAUBLR 2:22:48
84 2571 Nitendra SINGHIND 2:22:52
85 2330 Miguel Ángel ALMACHIECU 2:23:00
86 2703 Ilya TIAPKINKGZ 2:23:19
87 2554 Gábor JÓZSAHUN 2:23:22
88 2250 Gerald GIRALDOCOL 2:23:48
89 2026 Luis Ariel MOLINAARG 2:23:55
90 2886 Yonas KINDEETH 2:24:08
91 2224 DUOBUJIECHN 2:24:22
92 2763 Ser-Od BAT-OCHIRMGL 2:24:26
93 3124 Jordan CHIPANGAMAZAM 2:24:58
94 2647 Hisanori KITAJIMAJPN 2:25:11
95 2730 Lebenya NKOKALES 2:25:13
96 2241 Renxue ZHUCHN 2:25:31
97 2906 Sibusiso NZIMARSA 2:25:33
98 2219 Daniel ESTRADACHI 2:25:33
99 2916 Ambroise UWIRAGIYERWA 2:25:57
100 2972 Chin-Ping HOTPE 2:26:00
101 2672 Mihail KRASSILOVKAZ 2:26:11
102 2773 David CARVERMRI 2:26:16
103 2582 Mick CLOHISSEYIRL 2:26:34
104 2012 Hakim SADIALG 2:26:47
105 2755 Roman PRODIUSMDA 2:27:01
106 3119 Luis Alberto ORTAVEN 2:27:05
107 2764 Gantulga DAMBADARJAAMGL 2:27:42
108 2220 Enzo YAÑEZCHI 2:27:47
109 2553 Gáspár CSEREHUN 2:28:03
110 3039 Martín Esteban CUESTASURU 2:28:10
111 2732 Valdas DOPOLSKASLTU 2:28:21
112 2962 Fabiano JOSEPHTAN 2:28:31
113 2246 Kamongwa Salukombo MAKOROBONDOCOD 2:28:54
114 2460 Derek HAWKINSGBR 2:29:24
115 2084 Célestin NIHORIMBEREBDI 2:29:38
116 2534 Hristóforos MEROÚSISGRE 2:29:39
117 2930 Anton KOSMACSLO 2:29:48
118 2542 José Amado GARCÍAGUA 2:30:11
119 2939 Andjelko RISTICEVICSRB 2:30:17
120 2760 Ricardo RAMOSMEX 2:30:20
121 2590 Tasama MOOGASISR 2:30:30
122 2588 Ageze GUADIEISR 2:30:45
123 2867 Rui Pedro SILVAPOR 2:30:52
124 2331 Segundo JAMIECU 2:31:07
125 2249 Diego COLORADOCOL 2:31:20
126 3003 Bekir KARAYELTUR 2:31:27
127 2890 Nicolae-Alexandru SOAREROU 2:31:53
128 2851 Yared SHEGUMOPOL 2:31:54
129 2577 Mohammadjafar MORADIIRI 2:31:58
130 2765 Byambajav TSEVEENRAVDANMGL 2:36:14
131 2708 Myeongjun SONKOR 2:36:21
132 2533 Michael KALOMIRISGRE 2:37:03
133 2966 Boonthung SRISUNGTHA 2:37:46
134 2866 Ricardo RIBASPOR 2:38:29
135 2817 Jorge CASTELBLANCOPAN 2:39:25
136 2819 Derlys AYALAPAR 2:39:40
137 2022 Federico BRUNOARG 2:40:05
138 2707 Jungsub SHIMKOR 2:42:42
139 2187 Kuniaki TAKIZAKICAM 2:45:55
140 2634 Methkal ABU DRAISJOR 2:46:18
2688 Wesley KORIRKEN DNF
3126 Wirimai JUWAWOZIM DNF
2387 Tesfaye ABERAETH DNF
2728 Tsepo MATHIBELLELES DNF
2897 Lungile GONGQARSA DNF
2475 Tsegai TEWELDEGBR DNF
2676 Stanley Kipleting BIWOTTKEN DNF
2604 Daniele MEUCCIITA DNF
2173 Isaac KORIRBRN DNF
2991 Wissem HOSNITUN DNF
2007 El Hadi LAAMECHEALG DNF
2085 Abraham NIYONKURUBDI DNF
2163 Alemu BEKELEBRN DNF
2853 Henryk SZOSTPOL DNF
3112 Andrey PETROVUZB DNF


Advertisement
Related event: 2016 Rio Olympics
Posted in: Other


Never miss running news.

Sent once a week or when breaking news breaks.
(We don't spam or sell our list)